Location: Unspecified
(0.0000°N, 0.0000°E)
Time: 04:35:01
(UTC+00:00)

ISS - Pass Details

Date: 08 March 2019
Orbit: 411 x 421 km, 51.6° (Epoch: 21 October)

Event Time Altitude Azimuth Distance (km) Brightness Sun altitude
Rises 11:10:14 0° 286° (WNW) 2,380 -0.1 74.1°
Reaches altitude 10° 11:14:25 10° 237° (WSW) 1,526 -0.9 75.1°
Maximum altitude 11:14:37 10° 233° (SW) 1,524 -0.9 75.1°
Drops below altitude 10° 11:14:49 10° 230° (SW) 1,527 -0.9 75.2°
Sets 11:19:02 0° 180° (S) 2,404 0.2 76.2°
